Location: *
(60.1759°S, 155.0663°W)
Time: 07:20:19
(UTC+00:00)

Okean 1 - Pass Details

Date: 17 September 2019
Orbit: 540 x 554 km, 82.5° (Epoch: 17 October)

Event Time Altitude Azimuth Distance (km) Brightness Sun altitude
Rises 14:15:42 0° 195° (SSW) 2,781 7.1 -16.3°
Reaches altitude 10° 14:17:54 10° 193° (SSW) 1,877 6.2 -16.0°
Maximum altitude 14:22:03 84° 104° (ESE) 575 3.4 -15.6°
Drops below altitude 10° 14:26:07 10° 15° (NNE) 1,845 5.9 -15.1°
Sets 14:28:16 0° 14° (NNE) 2,729 6.8 -14.9°
